Location: Waltman Observatory
(32.5145°N, 90.4450°W)
Time: 07:14:18
(UTC-05:00)

Amateur Radio Satellites - All Passes

Search period start: 25 September 2016 06:44
Search period end: 26 September 2016 06:44
Location: Waltman Observatory, 32.5145°N, 90.4450°W

Satellite Date Start Highest point End Downlink Frequencies (MHz)
Time Altitude Azimuth
DANDE 25 Sep 06:48:35 06:55:48 31° 72° (ENE) 07:02:38 436.750
O/OREOS (USA 219) 25 Sep 06:49:25 06:50:48 11° 98° (E) 06:52:11 437.305
LilacSat-2 25 Sep 06:50:15 06:53:51 39° 99° (E) 06:57:27 437.200
AIST 1 25 Sep 06:54:35 06:57:48 20° 283° (WNW) 07:01:02
DOVE 4 25 Sep 07:04:14 07:07:35 23° 96° (E) 07:10:52 437.250
CUSAT 1 25 Sep 07:31:21 07:38:55 60° 268° (W) 07:45:13 437.405
HORYU 2 25 Sep 07:34:03 07:35:26 11° 294° (WNW) 07:36:47 437.375
NOAA 15 25 Sep 07:46:52 07:51:52 44° 288° (WNW) 07:56:50 137.62
Cubesat XI-IV 25 Sep 07:51:29 07:56:39 50° 287° (WNW) 08:01:48 437.490
CUTE-I 25 Sep 07:52:42 07:57:50 48° 287° (WNW) 08:02:57 437.470
BRITE-PL 25 Sep 08:01:03 08:02:45 12° 296° (WNW) 08:04:25 437.365/2234.400
STRAND 1 25 Sep 08:01:18 08:06:15 54° 259° (W) 08:11:15 437.568
GOMX 1 25 Sep 08:04:46 08:08:12 23° 290° (WNW) 08:11:30 467.674
NOAA 18 25 Sep 08:07:13 08:12:25 46° 288° (WNW) 08:17:37 137.9125
CUTE 1.7 + AOD 2 25 Sep 08:12:57 08:16:31 25° 96° (E) 08:20:04 437.475
CANX-2 25 Sep 08:13:21 08:17:10 30° 97° (E) 08:20:56 2200.000
RS-15 25 Sep 08:14:45 08:24:33 29° 257° (WSW) 08:34:08 29.354- 29.394
AO-85 25 Sep 08:19:47 08:23:03 25° 249° (WSW) 08:26:13 145.980
SEEDS 25 Sep 08:20:32 08:23:46 21° 95° (E) 08:26:59 437.485
O/OREOS (USA 219) 25 Sep 08:25:16 08:29:39 50° 292° (WNW) 08:34:07 437.305
LilacSat-2 25 Sep 08:26:41 08:27:44 11° 292° (WNW) 08:28:47 437.200
DANDE 25 Sep 08:30:45 08:38:48 52° 269° (W) 08:46:16 436.750
CUBEBUG 2 25 Sep 08:31:39 08:33:57 14° 94° (E) 08:36:18 437.445
HO-68 25 Sep 08:32:21 08:39:16 50° 101° (E) 08:46:08 435.675
CINEMA 3 25 Sep 08:38:16 08:42:26 77° 102° (ESE) 08:46:42 145.822/145.860
DOVE 4 25 Sep 08:42:02 08:45:09 20° 290° (WNW) 08:48:12 437.250
AAUSAT CUBESAT 2 25 Sep 08:51:58 08:55:28 25° 96° (E) 08:58:56 437.432
UWE-3 25 Sep 08:55:47 08:58:46 18° 95° (E) 09:01:46 435.000/436.395/437.385
Cosmos 2499 25 Sep 09:09:41 09:16:46 55° 92° (E) 09:23:36 435.465 / 435.565
GONETS M04 25 Sep 09:10:20 09:19:03 70° 92° (E) 09:27:51
PRISM 25 Sep 09:25:02 09:29:09 66° 258° (WSW) 09:33:19 437.425
ZACube-1 25 Sep 09:31:30 09:35:18 29° 97° (E) 09:39:09 437.345
COMPASS 1 25 Sep 09:32:32 09:36:45 71° 283° (WNW) 09:40:56 437.405
ANTELSAT 25 Sep 09:33:17 09:35:28 14° 68° (ENE) 09:37:40 437.575/2403.000
Oscar 11 25 Sep 09:35:30 09:39:23 31° 98° (E) 09:43:15 145.826/435.025
CUTE 1.7 + AOD 2 25 Sep 09:48:57 09:52:10 21° 289° (WNW) 09:55:23 437.475
CANX-2 25 Sep 09:49:51 09:52:44 18° 290° (WNW) 09:55:38 2200.000
TIGRISAT 25 Sep 09:53:23 09:56:45 23° 71° (ENE) 10:00:05 435.000
SEEDS 25 Sep 09:55:53 09:59:21 25° 289° (WNW) 10:02:49 437.485
CUBEBUG 2 25 Sep 10:06:42 10:10:38 37° 286° (WNW) 10:14:40 437.445
HUMSAT D 25 Sep 10:19:23 10:22:19 18° 95° (E) 10:25:16 437.325/437.525
HO-68 25 Sep 10:20:52 10:26:33 26° 296° (WNW) 10:32:13 435.675
FUNcube-1 25 Sep 10:26:57 10:31:13 61° 284° (WNW) 10:35:33 145.935
AAUSAT CUBESAT 2 25 Sep 10:27:41 10:30:45 20° 290° (WNW) 10:33:48 437.432
UWE-3 25 Sep 10:31:26 10:35:11 30° 287° (WNW) 10:39:01 435.000/436.395/437.385
UNISAT 6 25 Sep 10:31:56 10:36:14 75° 76° (ENE) 10:40:30 437.425
DELFI C3 25 Sep 10:37:34 10:41:34 69° 101° (E) 10:45:33 145.870
BEESAT 3 25 Sep 10:49:16 10:52:49 31° 57° (ENE) 10:56:22 437.485
QB50P1 25 Sep 10:49:24 10:51:07 12° 67° (ENE) 10:52:49 145.935-145.965
DUCHIFAT 1 25 Sep 10:51:22 10:52:23 11° 67° (ENE) 10:53:24 145.980
JAS-2 25 Sep 11:00:07 11:04:27 20° 62° (ENE) 11:09:07 435.910
POPSAT HIP 1 25 Sep 11:01:30 11:04:14 17° 69° (ENE) 11:06:59 437.405
PHONESAT 2.4 25 Sep 11:03:26 11:06:00 28° 146° (SE) 11:08:35 2401.200-2431.200
Cosmos 2499 25 Sep 11:05:05 11:10:09 20° 287° (WNW) 11:15:10 435.465 / 435.565
ANTELSAT 25 Sep 11:07:49 11:11:50 38° 261° (W) 11:15:49 437.575/2403.000
ZACube-1 25 Sep 11:08:19 11:11:21 19° 290° (WNW) 11:14:25 437.345
GONETS M04 25 Sep 11:10:17 11:16:32 21° 290° (WNW) 11:22:50
Oscar 11 25 Sep 11:12:19 11:15:14 18° 291° (WNW) 11:18:09 145.826/435.025
NANOSAT C BR1 25 Sep 11:19:03 11:22:34 26° 72° (ENE) 11:26:05 145.865
TIGRISAT 25 Sep 11:29:55 11:33:19 23° 263° (W) 11:36:42 435.000
BEESAT 2 25 Sep 11:38:18 11:42:15 55° 61° (ENE) 11:46:10 435.950
QB50P2 25 Sep 11:38:55 11:43:02 55° 75° (ENE) 11:47:09 145.880/145.840
POLYITAN 1 25 Sep 11:41:11 11:45:17 55° 75° (ENE) 11:49:23 437.675
ESTCUBE 1 25 Sep 11:46:41 11:50:33 27° 97° (E) 11:54:22 437.505/2401.250
HUMSAT D 25 Sep 11:54:14 11:57:53 29° 288° (WNW) 12:01:35 437.325/437.525
VELOX 1 25 Sep 11:59:28 12:02:17 17° 95° (E) 12:05:06 145.980
CUBEBUG 1 25 Sep 12:10:32 12:14:22 30° 98° (E) 12:18:10 437.445
QB50P1 25 Sep 12:22:27 12:26:27 43° 261° (W) 12:30:29 145.935-145.965
DUCHIFAT 1 25 Sep 12:23:32 12:27:35 49° 260° (W) 12:31:39 145.980
BEESAT 3 25 Sep 12:27:44 12:30:11 16° 251° (WSW) 12:32:38 437.485
POPSAT HIP 1 25 Sep 12:36:03 12:39:44 30° 262° (W) 12:43:28 437.405
BUGSAT 1 25 Sep 12:37:51 12:42:00 89° 259° (W) 12:46:07 437.445
PHONESAT 2.4 25 Sep 12:39:18 12:42:05 37° 340° (NNW) 12:44:52 2401.200-2431.200
JAS-2 25 Sep 12:42:42 12:48:41 60° 260° (W) 12:55:32 435.910
AISAT 25 Sep 12:50:33 12:54:57 77° 103° (ESE) 12:59:18 437.250
NANOSAT C BR1 25 Sep 12:55:14 12:58:14 19° 264° (W) 13:01:13 145.865
50 SAT 25 Sep 12:58:56 13:02:37 79° 283° (WNW) 13:06:15 437.505
AUBIESAT-1 25 Sep 13:02:55 13:06:05 44° 105° (ESE) 13:09:17 437.475
SPROUT 25 Sep 13:04:49 13:08:59 55° 100° (E) 13:13:09 437.525
YUBILEINY 25 Sep 13:11:46 13:15:26 13° 66° (ENE) 13:19:05 435.215
UKube-1 25 Sep 13:13:03 13:17:19 59° 101° (ESE) 13:21:33 .
ESTCUBE 1 25 Sep 13:23:40 13:27:09 22° 290° (WNW) 13:30:37 437.505/2401.250
Oscar 19 25 Sep 13:24:05 13:29:06 51° 73° (ENE) 13:34:08 437.125/150
PCSat 25 Sep 13:25:59 13:27:36 11° 49° (NE) 13:29:13 145.827
VELOX 1 25 Sep 13:34:50 13:38:47 33° 288° (WNW) 13:42:41 145.980
AIST 2 25 Sep 13:36:00 13:39:50 34° 57° (ENE) 13:43:39 435.215
DX 1 25 Sep 13:36:10 13:40:24 52° 285° (WNW) 13:44:35 434.975-435.025
M-CUBED/EXP-1 PRIME 25 Sep 13:37:54 13:40:56 35° 290° (WNW) 13:43:56 437.505
CUBEBUG 1 25 Sep 13:47:28 13:50:23 18° 291° (WNW) 13:53:17 437.445
Gurwin Techsat 1B 25 Sep 13:59:03 14:04:11 51° 73° (ENE) 14:09:19 435.225
ITAMSAT 1 25 Sep 14:12:55 14:16:17 18° 66° (ENE) 14:19:39 435.822/435.867
PHONESAT 2.4 25 Sep 14:16:37 14:18:42 17° 356° (N) 14:20:48 2401.200-2431.200
TISAT 1 25 Sep 14:35:29 14:39:37 65° 283° (WNW) 14:43:44 437.305
Cosmos 2491 25 Sep 14:53:19 15:01:28 45° 88° (E) 15:09:38 435.465 / 435.565
YUBILEINY 25 Sep 15:04:42 15:13:26 84° 83° (E) 15:22:08 435.215
Oscar 19 25 Sep 15:05:45 15:08:37 15° 266° (W) 15:11:31 437.125/150
PCSat 25 Sep 15:06:16 15:11:43 89° 73° (ENE) 15:17:06 145.827
ITUPSAT 1 25 Sep 15:07:50 15:12:24 42° 99° (E) 15:16:56 437.325
SO-50 25 Sep 15:08:04 15:12:02 25° 111° (ESE) 15:15:59 436.795
AO-7 25 Sep 15:08:16 15:16:01 45° 66° (ENE) 15:23:46 29.400- 29.500
AIST 2 25 Sep 15:15:21 15:18:01 16° 251° (WSW) 15:20:39 435.215
SWISSCUBE 25 Sep 15:22:19 15:27:07 72° 102° (ESE) 15:31:53 437.505
BEESAT 25 Sep 15:35:37 15:40:25 90° 76° (ENE) 15:45:12 436.000
Gurwin Techsat 1B 25 Sep 15:41:19 15:44:20 15° 267° (W) 15:47:21 435.225
Cosmos 2504 25 Sep 15:46:22 15:53:44 61° 82° (E) 16:01:35 435.465 / 435.565
MOZHAYETS 4 25 Sep 15:50:13 15:53:30 19° 95° (E) 15:56:45
ITAMSAT 1 25 Sep 15:50:26 15:55:20 45° 260° (W) 16:00:18 435.822/435.867
PHONESAT 2.4 25 Sep 15:53:00 15:55:27 23° 13° (NNE) 15:57:55 2401.200-2431.200
KKS-1 25 Sep 16:34:43 16:38:49 36° 99° (E) 16:42:52 437.445
ITUPSAT 1 25 Sep 16:46:51 16:49:51 17° 293° (WNW) 16:52:50 437.325
SO-50 25 Sep 16:48:06 16:52:21 30° 305° (NW) 16:56:36 436.795
HORYU 2 25 Sep 16:48:53 16:52:37 28° 71° (ENE) 16:56:23 437.375
Cosmos 2491 25 Sep 16:50:40 16:58:19 33° 285° (WNW) 17:06:05 435.465 / 435.565
AO-7 25 Sep 17:01:27 17:08:47 34° 261° (W) 17:16:09 29.400- 29.500
O/OREOS (USA 219) 25 Sep 17:02:51 17:04:32 12° 59° (ENE) 17:06:12 437.305
CUBESAT XI-V 25 Sep 17:03:19 17:05:46 14° 93° (E) 17:08:11 437.345
YUBILEINY 25 Sep 17:04:39 17:09:01 15° 280° (W) 17:13:23 435.215
AIST 1 25 Sep 17:04:59 17:09:13 62° 82° (E) 17:13:26
STARS 25 Sep 17:15:42 17:19:57 50° 100° (E) 17:24:11 437.465
NOAA 15 25 Sep 17:24:12 17:27:54 19° 67° (ENE) 17:31:35 137.62
BRITE-PL 25 Sep 17:24:51 17:30:10 43° 73° (ENE) 17:35:30 437.365/2234.400
MOZHAYETS 4 25 Sep 17:26:31 17:30:39 33° 288° (WNW) 17:34:46
PHONESAT 2.4 25 Sep 17:28:50 17:31:48 79° 211° (SSW) 17:34:47 2401.200-2431.200
GOMX 1 25 Sep 17:29:43 17:33:37 20° 69° (ENE) 17:37:26 467.674
LilacSat-2 25 Sep 17:30:40 17:31:16 10° 68° (ENE) 17:31:52 437.200
Cubesat XI-IV 25 Sep 17:30:58 17:34:25 18° 66° (ENE) 17:37:51 437.490
CUTE-I 25 Sep 17:31:54 17:35:26 18° 66° (ENE) 17:38:58 437.470
Cosmos 2504 25 Sep 17:41:22 17:46:30 20° 275° (W) 17:51:49 435.465 / 435.565
NOAA 18 25 Sep 17:49:41 17:53:55 23° 67° (ENE) 17:58:08 137.9125
DOVE 4 25 Sep 18:05:08 18:08:36 19° 69° (ENE) 18:11:56 437.250
KKS-1 25 Sep 18:12:21 18:15:01 16° 292° (WNW) 18:17:42 437.445
RS-15 25 Sep 18:16:10 18:18:16 11° 95° (E) 18:20:22 29.354- 29.394
HORYU 2 25 Sep 18:25:54 18:29:07 20° 264° (W) 18:32:22 437.375
CUBESAT XI-V 25 Sep 18:38:50 18:43:18 44° 286° (WNW) 18:47:42 437.345
O/OREOS (USA 219) 25 Sep 18:39:46 18:44:16 56° 254° (WSW) 18:48:44 437.305
CUSAT 1 25 Sep 18:46:15 18:50:33 22° 83° (E) 18:55:36 437.405
STARS 25 Sep 18:54:22 18:55:49 11° 294° (WNW) 18:57:15 437.465
HO-68 25 Sep 18:57:16 19:02:40 24° 63° (ENE) 19:08:04 435.675
LilacSat-2 25 Sep 19:01:37 19:05:09 39° 261° (W) 19:08:42 437.200
NOAA 15 25 Sep 19:02:16 19:07:17 43° 261° (W) 19:12:20 137.62
CANX-2 25 Sep 19:03:28 19:05:17 13° 68° (ENE) 19:07:05 2200.000
CUTE 1.7 + AOD 2 25 Sep 19:03:52 19:04:38 10° 67° (ENE) 19:05:23 437.475
BRITE-PL 25 Sep 19:04:27 19:08:41 22° 266° (W) 19:12:57 437.365/2234.400
GOMX 1 25 Sep 19:06:09 19:11:20 43° 261° (W) 19:16:23 467.674
Cosmos 2499 25 Sep 19:07:39 19:11:03 13° 70° (ENE) 19:14:33 435.465 / 435.565
Cubesat XI-IV 25 Sep 19:08:57 19:14:03 47° 260° (W) 19:19:10 437.490
CUTE-I 25 Sep 19:10:01 19:15:04 45° 260° (W) 19:20:09 437.470
GONETS M04 25 Sep 19:27:25 19:34:35 27° 73° (ENE) 19:41:39
NOAA 18 25 Sep 19:29:15 19:34:18 37° 261° (W) 19:39:21 137.9125
CINEMA 3 25 Sep 19:35:13 19:39:30 40° 74° (ENE) 19:43:38 145.822/145.860
DOVE 4 25 Sep 19:41:06 19:45:58 41° 261° (W) 19:50:37 437.250
DANDE 25 Sep 19:52:18 19:56:03 26° 85° (E) 20:00:46 436.750
STRAND 1 25 Sep 20:16:12 20:21:21 76° 102° (ESE) 20:26:30 437.568
RS-15 25 Sep 20:17:01 20:28:18 70° 113° (ESE) 20:40:15 29.354- 29.394
COMPASS 1 25 Sep 20:18:33 20:22:25 39° 74° (ENE) 20:26:19 437.405
ZACube-1 25 Sep 20:24:47 20:26:38 13° 68° (ENE) 20:28:28 437.345
CUSAT 1 25 Sep 20:26:30 20:31:52 46° 285° (WNW) 20:38:38 437.405
Oscar 11 25 Sep 20:27:12 20:29:28 14° 68° (ENE) 20:31:46 145.826/435.025
CUTE 1.7 + AOD 2 25 Sep 20:35:51 20:39:57 51° 260° (W) 20:44:05 437.475
CANX-2 25 Sep 20:36:42 20:40:41 42° 261° (W) 20:44:44 2200.000
ISS 25 Sep 20:37:55 20:41:03 50° 133° (SE) 20:44:14 145.825
SEEDS 25 Sep 20:41:57 20:46:06 65° 260° (W) 20:50:18 437.485
HO-68 25 Sep 20:42:51 20:49:51 56° 258° (WSW) 20:56:53 435.675
AO-85 25 Sep 20:48:24 20:52:42 25° 111° (ESE) 20:56:50 145.980
Cosmos 2499 25 Sep 20:57:14 21:04:52 89° 265° (W) 21:13:07 435.465 / 435.565
CUBEBUG 2 25 Sep 20:59:48 21:04:05 82° 258° (WSW) 21:08:16 437.445
JUGNU 25 Sep 21:08:37 21:12:23 17° 168° (SSE) 21:16:07 437.505
PRISM 25 Sep 21:11:41 21:14:58 23° 97° (E) 21:18:13 437.425
AAUSAT CUBESAT 2 25 Sep 21:12:00 21:16:03 54° 260° (W) 21:20:08 437.432
CINEMA 3 25 Sep 21:14:15 21:16:42 14° 266° (W) 21:19:07 145.822/145.860
FUNcube-1 25 Sep 21:17:50 21:21:53 55° 75° (ENE) 21:25:55 145.935
DELFI C3 25 Sep 21:19:28 21:22:27 21° 71° (ENE) 21:25:28 145.870
GONETS M04 25 Sep 21:23:13 21:31:42 55° 270° (W) 21:40:07
UWE-3 25 Sep 21:23:19 21:27:30 66° 259° (W) 21:31:38 435.000/436.395/437.385
DANDE 25 Sep 21:34:47 21:38:41 26° 291° (WNW) 21:43:35 436.750
COMPASS 1 25 Sep 21:56:21 21:58:05 12° 267° (W) 21:59:52 437.405
ZACube-1 25 Sep 21:58:39 22:02:32 39° 261° (W) 22:06:25 437.345
STRAND 1 25 Sep 21:58:46 21:59:50 11° 297° (WNW) 22:00:53 437.568
Oscar 11 25 Sep 22:01:13 22:05:14 38° 262° (W) 22:09:16 145.826/435.025
ISS 25 Sep 22:15:53 22:17:46 14° 328° (NNW) 22:19:38 145.825
AO-85 25 Sep 22:28:14 22:33:00 35° 303° (WNW) 22:37:33 145.980
UNISAT 6 25 Sep 22:28:31 22:31:58 22° 96° (E) 22:35:28 437.425
RS-15 25 Sep 22:31:32 22:41:41 33° 314° (NW) 22:52:21 29.354- 29.394
HUMSAT D 25 Sep 22:40:10 22:44:13 77° 260° (W) 22:48:19 437.325/437.525
ESTCUBE 1 25 Sep 22:42:53 22:45:28 15° 68° (ENE) 22:48:05 437.505/2401.250
PRISM 25 Sep 22:46:58 22:50:07 21° 290° (WNW) 22:53:14 437.425
DELFI C3 25 Sep 22:54:02 22:57:08 22° 264° (W) 23:00:16 145.870
Cosmos 2499 25 Sep 22:54:25 22:57:00 12° 279° (W) 22:59:37 435.465 / 435.565
JUGNU 25 Sep 22:56:12 23:00:46 23° 178° (S) 23:05:19 437.505
CUBEBUG 1 25 Sep 23:03:04 23:05:41 16° 68° (ENE) 23:08:18 437.445
ANTELSAT 25 Sep 23:03:16 23:07:37 58° 101° (E) 23:12:03 437.575/2403.000
TIGRISAT 25 Sep 23:24:27 23:28:51 83° 283° (WNW) 23:33:21 435.000
QB50P2 25 Sep 23:30:10 23:32:02 13° 94° (E) 23:33:55 145.880/145.840
50 SAT 25 Sep 23:31:49 23:34:30 20° 71° (ENE) 23:37:14 437.505
POLYITAN 1 25 Sep 23:32:23 23:34:16 13° 94° (E) 23:36:09 437.675
AISAT 25 Sep 23:43:16 23:47:22 37° 73° (ENE) 23:51:29 437.250
AUBIESAT-1 25 Sep 23:44:17 23:47:58 30° 69° (ENE) 23:51:26 437.475
SRMSAT 25 Sep 23:48:32 23:52:31 19° 169° (S) 23:56:30 437.500
SPROUT 25 Sep 23:54:18 23:57:41 23° 71° (ENE) 00:01:04 437.525
JAS-2 25 Sep 23:57:21 00:04:00 30° 94° (E) 00:10:19 435.910
UKube-1 26 Sep 00:03:20 00:06:59 27° 71° (ENE) 00:10:39 .
UNISAT 6 26 Sep 00:04:56 00:08:35 26° 288° (WNW) 00:12:17 437.425
QB50P1 26 Sep 00:11:31 00:15:29 39° 99° (E) 00:19:26 145.935-145.965
DUCHIFAT 1 26 Sep 00:12:09 00:15:59 34° 99° (E) 00:19:47 145.980
ESTCUBE 1 26 Sep 00:17:38 00:21:53 40° 261° (W) 00:26:10 437.505/2401.250
M-CUBED/EXP-1 PRIME 26 Sep 00:18:49 00:23:11 76° 255° (WSW) 00:27:13 437.505
POPSAT HIP 1 26 Sep 00:24:39 00:28:48 58° 101° (E) 00:32:57 437.405
BUGSAT 1 26 Sep 00:25:11 00:27:53 17° 96° (E) 00:30:35 437.445
DX 1 26 Sep 00:26:36 00:30:58 73° 76° (ENE) 00:35:20 434.975-435.025
VELOX 1 26 Sep 00:26:44 00:31:10 68° 259° (WSW) 00:35:37 145.980
BEESAT 3 26 Sep 00:36:31 00:38:51 15° 109° (ESE) 00:41:12 437.485
CUBEBUG 1 26 Sep 00:37:30 00:41:36 37° 261° (W) 00:45:44 437.445
NANOSAT C BR1 26 Sep 00:42:36 00:46:49 86° 283° (WNW) 00:51:01 145.865
ANTELSAT 26 Sep 00:43:04 00:43:49 10° 293° (WNW) 00:44:35 437.575/2403.000
JUGNU 26 Sep 00:44:57 00:49:12 21° 188° (S) 00:53:25 437.505
RS-15 26 Sep 00:56:22 00:59:57 11° 348° (NNW) 01:03:33 29.354- 29.394
QB50P2 26 Sep 01:04:01 01:07:57 39° 287° (WNW) 01:11:53 145.880/145.840
50 SAT 26 Sep 01:05:23 01:07:54 18° 264° (W) 01:10:25 437.505
POLYITAN 1 26 Sep 01:06:15 01:10:11 39° 286° (WNW) 01:14:07 437.675
Cosmos 2491 26 Sep 01:11:10 01:16:22 17° 68° (ENE) 01:21:31 435.465 / 435.565
AUBIESAT-1 26 Sep 01:19:33 01:22:20 17° 259° (WSW) 01:25:01 437.475
AISAT 26 Sep 01:21:18 01:23:55 15° 266° (W) 01:26:32 437.250
TISAT 1 26 Sep 01:22:18 01:26:19 47° 74° (ENE) 01:30:21 437.305
SO-50 26 Sep 01:23:18 01:27:51 71° 61° (ENE) 01:32:15 436.795
BEESAT 2 26 Sep 01:26:02 01:29:25 29° 112° (ESE) 01:32:52 435.950
SPROUT 26 Sep 01:30:08 01:33:29 22° 264° (W) 01:36:51 437.525
SRMSAT 26 Sep 01:36:28 01:41:05 24° 179° (S) 01:45:41 437.500
UKube-1 26 Sep 01:39:49 01:42:58 20° 264° (W) 01:46:08 .
Oscar 19 26 Sep 01:40:51 01:45:06 26° 97° (E) 01:49:19 437.125/150
JAS-2 26 Sep 01:41:35 01:49:05 49° 290° (WNW) 01:56:13 435.910
QB50P1 26 Sep 01:48:51 01:50:52 13° 292° (WNW) 01:52:52 145.935-145.965
DUCHIFAT 1 26 Sep 01:48:56 01:51:19 15° 291° (WNW) 01:53:43 145.980
BUGSAT 1 26 Sep 01:59:52 02:03:12 26° 288° (WNW) 02:06:34 437.445
YUBILEINY 26 Sep 02:06:51 02:12:20 18° 81° (E) 02:17:47 435.215
ITUPSAT 1 26 Sep 02:10:21 02:14:26 29° 71° (ENE) 02:18:32 437.325
BEESAT 3 26 Sep 02:12:44 02:16:12 30° 303° (WNW) 02:19:43 437.485
Gurwin Techsat 1B 26 Sep 02:20:15 02:24:53 30° 97° (E) 02:29:29 435.225
SWISSCUBE 26 Sep 02:24:10 02:28:42 48° 73° (ENE) 02:33:17 437.505
JUGNU 26 Sep 02:35:33 02:37:31 12° 197° (SSW) 02:39:30 437.505
BEESAT 26 Sep 02:37:16 02:41:56 60° 74° (ENE) 02:46:38 436.000
MOZHAYETS 4 26 Sep 02:49:56 02:51:01 11° 66° (ENE) 02:52:06
TISAT 1 26 Sep 03:01:26 03:02:09 10° 267° (W) 03:02:51 437.305
BEESAT 2 26 Sep 03:04:28 03:07:14 18° 307° (NW) 03:10:02 435.950
Cosmos 2491 26 Sep 03:05:17 03:14:10 83° 266° (W) 03:22:58 435.465 / 435.565
ISS 26 Sep 03:11:37 03:11:55 10° 29° (NNE) 03:12:12 145.825
RS-15 26 Sep 03:13:32 03:20:37 16° 27° (NNE) 03:27:38 29.354- 29.394
AO-7 26 Sep 03:16:44 03:21:53 18° 94° (E) 03:27:00 29.400- 29.500
Oscar 19 26 Sep 03:19:55 03:24:20 29° 290° (WNW) 03:28:43 437.125/150
SRMSAT 26 Sep 03:25:30 03:29:39 20° 189° (S) 03:33:48 437.500
KKS-1 26 Sep 03:28:58 03:32:12 20° 69° (ENE) 03:35:25 437.445
AIST 2 26 Sep 03:29:47 03:32:51 21° 110° (ESE) 03:35:56 435.215
ITUPSAT 1 26 Sep 03:48:31 03:52:12 22° 264° (W) 03:55:55 437.325
YUBILEINY 26 Sep 03:59:19 04:08:06 74° 277° (W) 04:16:53 435.215
Gurwin Techsat 1B 26 Sep 04:00:15 04:04:40 27° 291° (WNW) 04:09:04 435.225
PCSat 26 Sep 04:01:22 04:05:28 22° 106° (ESE) 04:09:35 145.827
SWISSCUBE 26 Sep 04:04:27 04:06:42 13° 267° (W) 04:08:57 437.505
ITAMSAT 1 26 Sep 04:07:31 04:12:46 88° 285° (WNW) 04:17:59 435.822/435.867
STARS 26 Sep 04:08:13 04:11:48 25° 71° (ENE) 04:15:24 437.465
BEESAT 26 Sep 04:19:23 04:20:01 10° 268° (W) 04:20:39 436.000
Cosmos 2504 26 Sep 04:19:29 04:26:53 57° 92° (E) 04:33:55 435.465 / 435.565
MOZHAYETS 4 26 Sep 04:23:07 04:27:36 59° 259° (W) 04:32:08
ISS 26 Sep 04:45:33 04:48:50 84° 42° (NE) 04:52:07 145.825
KKS-1 26 Sep 05:04:38 05:08:31 29° 262° (W) 05:12:25 437.445
Cosmos 2491 26 Sep 05:06:33 05:09:32 12° 282° (WNW) 05:12:30 435.465 / 435.565
AO-7 26 Sep 05:06:57 05:15:14 78° 289° (WNW) 05:23:31 29.400- 29.500
AIST 2 26 Sep 05:07:41 05:11:08 26° 304° (NW) 05:14:38 435.215
SRMSAT 26 Sep 05:17:13 05:18:09 10° 198° (SSW) 05:19:05 437.500
RS-15 26 Sep 05:24:48 05:36:53 55° 55° (NE) 05:48:35 29.354- 29.394
CUSAT 1 26 Sep 05:25:59 05:30:17 16° 64° (ENE) 05:34:15 437.405
AIST 1 26 Sep 05:29:10 05:33:22 46° 93° (E) 05:37:34
BRITE-PL 26 Sep 05:36:27 05:39:26 17° 92° (E) 05:42:16 437.365/2234.400
CUBESAT XI-V 26 Sep 05:36:52 05:41:32 79° 257° (WSW) 05:46:16 437.345
PCSat 26 Sep 05:43:31 05:48:33 39° 301° (WNW) 05:53:37 145.827
STARS 26 Sep 05:44:39 05:48:03 22° 263° (W) 05:51:28 437.465
YUBILEINY 26 Sep 06:04:29 06:06:20 11° 295° (WNW) 06:08:11 435.215
Cosmos 2504 26 Sep 06:15:17 06:20:32 20° 287° (WNW) 06:25:40 435.465 / 435.565
NOAA 18 26 Sep 06:17:17 06:19:54 14° 94° (E) 06:22:31 137.9125
HORYU 2 26 Sep 06:19:48 06:24:15 76° 285° (WNW) 06:28:42 437.375
